Time,TemperatureF,DewpointF,PressureIn,WindDirection,WindDirectionDegrees,WindSpeedMPH,WindSpeedGustMPH,Humidity,HourlyPrecipIn,Conditions,Clouds,dailyrainin,SoftwareType,DateUTC
2013-03-03 00:00:00,59.8,36.6,30.05,WNW,285,1.0,1.0,42,0.00,,,0.00,Wunderground v.1.15,2013-03-03 08:00:00,
2013-03-03 00:10:00,60.2,36.4,30.05,North,359,1.0,1.0,41,0.00,,,0.00,Wunderground v.1.15,2013-03-03 08:10:00,
2013-03-03 00:15:00,60.2,35.8,30.06,NNW,342,0.0,1.0,40,0.00,,,0.00,Wunderground v.1.15,2013-03-03 08:15:00,
2013-03-03 00:25:00,60.3,35.2,30.06,NNW,347,0.0,0.0,39,0.00,,,0.00,Wunderground v.1.15,2013-03-03 08:25:00,
2013-03-03 00:30:00,60.3,35.2,30.06,WNW,283,1.0,1.0,39,0.00,,,0.00,Wunderground v.1.15,2013-03-03 08:30:00,
2013-03-03 00:35:00,60.3,36.5,30.06,NNW,347,1.0,1.0,41,0.00,,,0.00,Wunderground v.1.15,2013-03-03 08:35:00,
2013-03-03 00:40:00,60.0,35.6,30.06,East,86,0.0,3.0,40,0.00,,,0.00,Wunderground v.1.15,2013-03-03 08:40:00,
2013-03-03 00:45:00,60.2,35.8,30.06,North,5,1.0,3.0,40,0.00,,,0.00,Wunderground v.1.15,2013-03-03 08:45:00,
2013-03-03 00:55:00,60.6,35.5,30.07,NW,324,1.0,2.0,39,0.00,,,0.00,Wunderground v.1.15,2013-03-03 08:55:00,
2013-03-03 01:00:00,60.4,34.7,30.07,North,4,1.0,1.0,38,0.00,,,0.00,Wunderground v.1.15,2013-03-03 09:00:00,
2013-03-03 01:10:00,60.3,35.9,30.07,NE,37,1.0,1.0,40,0.00,,,0.00,Wunderground v.1.15,2013-03-03 09:10:00,
2013-03-03 01:15:00,59.7,36.6,30.07,ENE,58,1.0,1.0,42,0.00,,,0.00,Wunderground v.1.15,2013-03-03 09:15:00,
2013-03-03 01:20:00,59.4,36.3,30.07,East,83,2.0,11.0,42,0.00,,,0.00,Wunderground v.1.15,2013-03-03 09:20:00,
2013-03-03 01:30:00,58.6,40.0,30.08,NW,323,9.0,9.0,50,0.00,,,0.00,Wunderground v.1.15,2013-03-03 09:30:00,
2013-03-03 01:35:00,57.6,40.1,30.08,WNW,290,3.0,9.0,52,0.00,,,0.00,Wunderground v.1.15,2013-03-03 09:35:00,
2013-03-03 01:40:00,56.5,41.4,30.08,West,276,2.0,2.0,57,0.00,,,0.00,Wunderground v.1.15,2013-03-03 09:40:00,
2013-03-03 01:45:00,55.5,41.8,30.08,NNW,340,2.0,2.0,60,0.00,,,0.00,Wunderground v.1.15,2013-03-03 09:45:00,
2013-03-03 01:55:00,54.0,43.3,30.10,SW,231,2.0,4.0,67,0.00,,,0.00,Wunderground v.1.15,2013-03-03 09:55:00,
2013-03-03 02:00:00,52.5,44.1,30.10,WNW,295,2.0,2.0,73,0.00,,,0.00,Wunderground v.1.15,2013-03-03 10:00:00,
2013-03-03 02:10:00,51.3,44.3,30.09,NE,49,2.0,2.0,77,0.00,,,0.00,Wunderground v.1.15,2013-03-03 10:10:00,
2013-03-03 02:15:00,51.3,44.3,30.09,WNW,300,2.0,2.0,77,0.00,,,0.00,Wunderground v.1.15,2013-03-03 10:15:00,
2013-03-03 02:20:00,51.2,44.2,30.09,ENE,64,1.0,1.0,77,0.00,,,0.00,Wunderground v.1.15,2013-03-03 10:20:00,
2013-03-03 02:25:00,51.0,44.7,30.09,NE,51,1.0,1.0,79,0.00,,,0.00,Wunderground v.1.15,2013-03-03 10:25:00,
2013-03-03 02:35:00,51.1,44.5,30.08,ENE,58,2.0,4.0,78,0.00,,,0.00,Wunderground v.1.15,2013-03-03 10:35:00,
2013-03-03 02:40:00,51.5,44.5,30.07,NE,50,3.0,3.0,77,0.00,,,0.00,Wunderground v.1.15,2013-03-03 10:40:00,
2013-03-03 02:45:00,51.8,44.5,30.07,NE,53,1.0,3.0,76,0.00,,,0.00,Wunderground v.1.15,2013-03-03 10:45:00,
2013-03-03 02:50:00,52.0,44.0,30.07,East,79,0.0,2.0,74,0.00,,,0.00,Wunderground v.1.15,2013-03-03 10:50:00,
2013-03-03 02:55:00,52.6,44.2,30.06,ENE,68,2.0,3.0,73,0.00,,,0.00,Wunderground v.1.15,2013-03-03 10:55:00,
2013-03-03 03:00:00,53.0,43.8,30.07,ESE,108,3.0,4.0,71,0.00,,,0.00,Wunderground v.1.15,2013-03-03 11:00:00,
2013-03-03 03:10:00,51.6,44.6,30.06,North,5,1.0,1.0,77,0.00,,,0.00,Wunderground v.1.15,2013-03-03 11:10:00,
2013-03-03 03:15:00,51.4,44.8,30.06,North,1,0.0,1.0,78,0.00,,,0.00,Wunderground v.1.15,2013-03-03 11:15:00,
2013-03-03 03:20:00,51.4,44.4,30.05,ENE,57,1.0,1.0,77,0.00,,,0.00,Wunderground v.1.15,2013-03-03 11:20:00,
2013-03-03 03:25:00,51.7,44.0,30.05,NNE,23,1.0,1.0,75,0.00,,,0.00,Wunderground v.1.15,2013-03-03 11:25:00,
2013-03-03 03:35:00,50.3,44.7,30.07,WNW,290,4.0,6.0,81,0.00,,,0.00,Wunderground v.1.15,2013-03-03 11:35:00,
2013-03-03 03:40:00,48.6,44.6,30.07,SW,232,4.0,4.0,86,0.00,,,0.00,Wunderground v.1.15,2013-03-03 11:40:00,
2013-03-03 03:45:00,47.9,44.5,30.07,West,280,2.0,4.0,88,0.00,,,0.00,Wunderground v.1.15,2013-03-03 11:45:00,
2013-03-03 03:50:00,47.6,44.8,30.07,ENE,78,2.0,4.0,90,0.00,,,0.00,Wunderground v.1.15,2013-03-03 11:50:00,
2013-03-03 03:55:00,47.4,44.9,30.07,East,82,2.0,4.0,91,0.00,,,0.00,Wunderground v.1.15,2013-03-03 11:55:00,
2013-03-03 04:00:00,47.4,44.9,30.07,East,89,2.0,3.0,91,0.00,,,0.00,Wunderground v.1.15,2013-03-03 12:00:00,
2013-03-03 04:10:00,47.7,45.2,30.06,ENE,77,3.0,5.0,91,0.00,,,0.00,Wunderground v.1.15,2013-03-03 12:10:00,
2013-03-03 04:15:00,47.9,45.4,30.06,ENE,68,3.0,5.0,91,0.00,,,0.00,Wunderground v.1.15,2013-03-03 12:15:00,
2013-03-03 04:20:00,48.1,45.3,30.06,East,81,1.0,2.0,90,0.00,,,0.00,Wunderground v.1.15,2013-03-03 12:20:00,
2013-03-03 04:25:00,48.6,45.5,30.05,NE,44,1.0,2.0,89,0.00,,,0.00,Wunderground v.1.15,2013-03-03 12:25:00,
2013-03-03 04:30:00,48.9,45.2,30.05,NE,46,1.0,1.0,87,0.00,,,0.00,Wunderground v.1.15,2013-03-03 12:30:00,
2013-03-03 04:35:00,49.7,45.1,30.05,NE,51,0.0,1.0,84,0.00,,,0.00,Wunderground v.1.15,2013-03-03 12:35:00,
2013-03-03 04:45:00,51.0,44.4,30.05,North,6,0.0,0.0,78,0.00,,,0.00,Wunderground v.1.15,2013-03-03 12:45:00,
2013-03-03 04:50:00,51.4,43.7,30.05,North,6,0.0,0.0,75,0.00,,,0.00,Wunderground v.1.15,2013-03-03 12:50:00,
2013-03-03 04:55:00,51.7,43.7,30.05,North,6,0.0,1.0,74,0.00,,,0.00,Wunderground v.1.15,2013-03-03 12:55:00,
2013-03-03 05:00:00,51.9,43.9,30.05,North,6,0.0,0.0,74,0.00,,,0.00,Wunderground v.1.15,2013-03-03 13:00:00,
2013-03-03 05:10:00,51.9,44.2,30.05,ENE,61,0.0,0.0,75,0.00,,,0.00,Wunderground v.1.15,2013-03-03 13:10:00,
2013-03-03 05:15:00,51.9,43.9,30.05,ENE,60,0.0,0.0,74,0.00,,,0.00,Wunderground v.1.15,2013-03-03 13:15:00,
2013-03-03 05:20:00,52.2,43.8,30.06,NE,56,0.0,0.0,73,0.00,,,0.00,Wunderground v.1.15,2013-03-03 13:20:00,
2013-03-03 05:25:00,52.6,43.5,30.05,NE,53,0.0,0.0,71,0.00,,,0.00,Wunderground v.1.15,2013-03-03 13:25:00,
2013-03-03 05:30:00,52.7,43.2,30.05,NE,53,0.0,0.0,70,0.00,,,0.00,Wunderground v.1.15,2013-03-03 13:30:00,
2013-03-03 05:35:00,52.8,42.5,30.05,ENE,70,0.0,1.0,68,0.00,,,0.00,Wunderground v.1.15,2013-03-03 13:35:00,
2013-03-03 05:40:00,53.2,42.5,30.05,WNW,292,0.0,0.0,67,0.00,,,0.00,Wunderground v.1.15,2013-03-03 13:40:00,
2013-03-03 05:50:00,53.6,42.5,30.05,WNW,293,0.0,1.0,66,0.00,,,0.00,Wunderground v.1.15,2013-03-03 13:50:00,
2013-03-03 05:55:00,51.1,44.1,30.06,West,278,2.0,3.0,77,0.00,,,0.00,Wunderground v.1.15,2013-03-03 13:55:00,
2013-03-03 06:00:00,48.9,44.3,30.06,West,277,2.0,2.0,84,0.00,,,0.00,Wunderground v.1.15,2013-03-03 14:00:00,
2013-03-03 06:10:00,47.3,44.2,30.06,WNW,285,1.0,1.0,89,0.00,,,0.00,Wunderground v.1.15,2013-03-03 14:10:00,
2013-03-03 06:20:00,47.1,44.6,30.06,ENE,78,1.0,3.0,91,0.00,,,0.00,Wunderground v.1.15,2013-03-03 14:20:00,
2013-03-03 06:25:00,47.4,44.9,30.06,ENE,70,2.0,3.0,91,0.00,,,0.00,Wunderground v.1.15,2013-03-03 14:25:00,
2013-03-03 06:30:00,47.8,45.0,30.06,ENE,62,3.0,4.0,90,0.00,,,0.00,Wunderground v.1.15,2013-03-03 14:30:00,
2013-03-03 06:35:00,48.4,44.7,30.06,NE,56,2.0,4.0,87,0.00,,,0.00,Wunderground v.1.15,2013-03-03 14:35:00,
2013-03-03 06:40:00,49.5,44.2,30.06,ENE,61,1.0,1.0,82,0.00,,,0.00,Wunderground v.1.15,2013-03-03 14:40:00,
2013-03-03 06:45:00,50.7,43.8,30.06,ENE,61,1.0,2.0,77,0.00,,,0.00,Wunderground v.1.15,2013-03-03 14:45:00,
2013-03-03 06:55:00,52.3,42.8,30.06,ENE,74,0.0,1.0,70,0.00,,,0.00,Wunderground v.1.15,2013-03-03 14:55:00,
2013-03-03 07:00:00,51.8,44.5,30.06,WNW,294,1.0,3.0,76,0.00,,,0.00,Wunderground v.1.15,2013-03-03 15:00:00,
2013-03-03 07:10:00,49.6,43.4,30.06,NNW,328,3.0,3.0,79,0.00,,,0.00,Wunderground v.1.15,2013-03-03 15:10:00,
2013-03-03 07:15:00,50.4,43.5,30.06,ENE,74,2.0,3.0,77,0.00,,,0.00,Wunderground v.1.15,2013-03-03 15:15:00,
2013-03-03 07:25:00,51.2,42.5,30.06,ENE,74,1.0,1.0,72,0.00,,,0.00,Wunderground v.1.15,2013-03-03 15:25:00,
2013-03-03 07:30:00,52.5,42.2,30.06,ENE,74,0.0,1.0,68,0.00,,,0.00,Wunderground v.1.15,2013-03-03 15:30:00,
2013-03-03 07:40:00,53.8,42.3,30.06,ENE,75,0.0,0.0,65,0.00,,,0.00,Wunderground v.1.15,2013-03-03 15:40:00,
2013-03-03 07:45:00,54.2,42.3,30.06,ENE,69,0.0,0.0,64,0.00,,,0.00,Wunderground v.1.15,2013-03-03 15:45:00,
2013-03-03 07:50:00,54.4,42.5,30.07,ENE,70,0.0,0.0,64,0.00,,,0.00,Wunderground v.1.15,2013-03-03 15:50:00,
2013-03-03 07:55:00,54.5,43.8,30.07,ENE,69,0.0,0.0,67,0.00,,,0.00,Wunderground v.1.15,2013-03-03 15:55:00,
2013-03-03 08:00:00,53.6,44.0,30.07,WNW,302,0.0,1.0,70,0.00,,,0.00,Wunderground v.1.15,2013-03-03 16:00:00,
2013-03-03 08:10:00,52.9,45.2,30.07,East,93,1.0,2.0,75,0.00,,,0.00,Wunderground v.1.15,2013-03-03 16:10:00,
2013-03-03 08:15:00,51.9,45.3,30.07,WNW,288,1.0,2.0,78,0.00,,,0.00,Wunderground v.1.15,2013-03-03 16:15:00,
2013-03-03 08:20:00,51.3,45.7,30.07,West,280,1.0,3.0,81,0.00,,,0.00,Wunderground v.1.15,2013-03-03 16:20:00,
2013-03-03 08:25:00,50.0,45.7,30.07,West,280,1.0,3.0,85,0.00,,,0.00,Wunderground v.1.15,2013-03-03 16:25:00,
2013-03-03 08:30:00,49.7,45.7,30.07,West,280,1.0,1.0,86,0.00,,,0.00,Wunderground v.1.15,2013-03-03 16:30:00,
2013-03-03 08:35:00,49.9,46.2,30.07,West,280,0.0,1.0,87,0.00,,,0.00,Wunderground v.1.15,2013-03-03 16:35:00,
2013-03-03 08:45:00,50.4,46.7,30.07,West,278,0.0,1.0,87,0.00,,,0.00,Wunderground v.1.15,2013-03-03 16:45:00,
2013-03-03 08:55:00,50.0,46.3,30.08,West,273,1.0,1.0,87,0.00,,,0.00,Wunderground v.1.15,2013-03-03 16:55:00,
2013-03-03 09:00:00,50.0,46.6,30.08,WSW,248,1.0,1.0,88,0.00,,,0.00,Wunderground v.1.15,2013-03-03 17:00:00,
2013-03-03 09:10:00,49.9,46.5,30.08,WNW,290,1.0,1.0,88,0.00,,,0.00,Wunderground v.1.15,2013-03-03 17:10:00,
2013-03-03 09:15:00,49.8,46.4,30.08,SW,228,1.0,1.0,88,0.00,,,0.00,Wunderground v.1.15,2013-03-03 17:15:00,
2013-03-03 09:25:00,49.7,46.6,30.09,WNW,287,1.0,1.0,89,0.00,,,0.00,Wunderground v.1.15,2013-03-03 17:25:00,
2013-03-03 09:30:00,49.5,46.4,30.09,East,84,1.0,2.0,89,0.00,,,0.00,Wunderground v.1.15,2013-03-03 17:30:00,
2013-03-03 09:35:00,49.2,46.4,30.08,East,89,1.0,2.0,90,0.00,,,0.00,Wunderground v.1.15,2013-03-03 17:35:00,
2013-03-03 09:40:00,49.5,47.0,30.08,ENE,76,1.0,2.0,91,0.00,,,0.00,Wunderground v.1.15,2013-03-03 17:40:00,
2013-03-03 09:45:00,49.9,47.4,30.08,ENE,72,2.0,4.0,91,0.00,,,0.00,Wunderground v.1.15,2013-03-03 17:45:00,
2013-03-03 09:50:00,50.5,48.0,30.08,ENE,67,3.0,3.0,91,0.00,,,0.00,Wunderground v.1.15,2013-03-03 17:50:00,
2013-03-03 09:55:00,51.2,48.4,30.08,East,98,3.0,3.0,90,0.00,,,0.00,Wunderground v.1.15,2013-03-03 17:55:00,
2013-03-03 10:00:00,52.3,48.9,30.08,ESE,105,3.0,3.0,88,0.00,,,0.00,Wunderground v.1.15,2013-03-03 18:00:00,
2013-03-03 10:10:00,54.3,47.6,30.08,SE,140,2.0,2.0,78,0.00,,,0.00,Wunderground v.1.15,2013-03-03 18:10:00,
2013-03-03 10:15:00,56.0,48.2,30.07,WSW,245,1.0,2.0,75,0.00,,,0.00,Wunderground v.1.15,2013-03-03 18:15:00,
2013-03-03 10:20:00,57.2,46.7,30.07,WSW,252,1.0,1.0,68,0.00,,,0.00,Wunderground v.1.15,2013-03-03 18:20:00,
2013-03-03 10:30:00,58.5,45.1,30.07,West,274,1.0,3.0,61,0.00,,,0.00,Wunderground v.1.15,2013-03-03 18:30:00,
2013-03-03 10:35:00,58.0,45.5,30.07,WNW,294,2.0,3.0,63,0.00,,,0.00,Wunderground v.1.15,2013-03-03 18:35:00,
2013-03-03 10:40:00,56.8,46.7,30.08,West,264,4.0,6.0,69,0.00,,,0.00,Wunderground v.1.15,2013-03-03 18:40:00,
2013-03-03 10:45:00,55.9,46.6,30.07,West,270,4.0,6.0,71,0.00,,,0.00,Wunderground v.1.15,2013-03-03 18:45:00,
2013-03-03 10:50:00,55.8,46.2,30.07,WSW,250,3.0,3.0,70,0.00,,,0.00,Wunderground v.1.15,2013-03-03 18:50:00,
2013-03-03 10:55:00,56.5,46.1,30.07,West,262,2.0,6.0,68,0.00,,,0.00,Wunderground v.1.15,2013-03-03 18:55:00,
2013-03-03 11:00:00,57.0,45.7,30.07,SW,232,3.0,3.0,66,0.00,,,0.00,Wunderground v.1.15,2013-03-03 19:00:00,
2013-03-03 11:10:00,58.0,45.9,30.07,WNW,293,2.0,3.0,64,0.00,,,0.00,Wunderground v.1.15,2013-03-03 19:10:00,
2013-03-03 11:15:00,57.7,46.8,30.07,West,266,3.0,4.0,67,0.00,,,0.00,Wunderground v.1.15,2013-03-03 19:15:00,
2013-03-03 11:20:00,56.9,46.8,30.07,WSW,248,3.0,3.0,69,0.00,,,0.00,Wunderground v.1.15,2013-03-03 19:20:00,
2013-03-03 11:25:00,57.1,45.8,30.07,NW,312,4.0,4.0,66,0.00,,,0.00,Wunderground v.1.15,2013-03-03 19:25:00,
2013-03-03 11:40:00,57.5,43.7,30.07,WNW,295,4.0,6.0,60,0.00,,,0.00,Wunderground v.1.15,2013-03-03 19:40:00,
2013-03-03 11:45:00,57.3,43.5,30.07,WSW,255,5.0,6.0,60,0.00,,,0.00,Wunderground v.1.15,2013-03-03 19:45:00,
2013-03-03 11:50:00,57.4,43.6,30.07,West,259,5.0,5.0,60,0.00,,,0.00,Wunderground v.1.15,2013-03-03 19:50:00,
2013-03-03 11:55:00,57.3,44.0,30.07,WNW,300,4.0,5.0,61,0.00,,,0.00,Wunderground v.1.15,2013-03-03 19:55:00,
2013-03-03 12:00:00,57.5,43.7,30.06,NNW,335,3.0,4.0,60,0.00,,,0.00,Wunderground v.1.15,2013-03-03 20:00:00,
2013-03-03 12:10:00,58.4,43.7,30.06,WSW,256,2.0,3.0,58,0.00,,,0.00,Wunderground v.1.15,2013-03-03 20:10:00,
2013-03-03 12:15:00,58.7,43.5,30.06,WNW,284,2.0,3.0,57,0.00,,,0.00,Wunderground v.1.15,2013-03-03 20:15:00,
2013-03-03 12:20:00,59.3,43.1,30.06,West,267,3.0,3.0,55,0.00,,,0.00,Wunderground v.1.15,2013-03-03 20:20:00,
2013-03-03 12:25:00,59.5,43.3,30.05,West,281,3.0,4.0,55,0.00,,,0.00,Wunderground v.1.15,2013-03-03 20:25:00,
2013-03-03 12:30:00,59.5,43.8,30.05,WNW,287,3.0,4.0,56,0.00,,,0.00,Wunderground v.1.15,2013-03-03 20:30:00,
2013-03-03 12:35:00,59.1,43.9,30.05,NW,312,3.0,5.0,57,0.00,,,0.00,Wunderground v.1.15,2013-03-03 20:35:00,
2013-03-03 12:40:00,58.7,44.0,30.05,West,280,4.0,4.0,58,0.00,,,0.00,Wunderground v.1.15,2013-03-03 20:40:00,
2013-03-03 12:50:00,58.7,44.4,30.05,WSW,245,4.0,4.0,59,0.00,,,0.00,Wunderground v.1.15,2013-03-03 20:50:00,
2013-03-03 12:55:00,59.0,43.3,30.04,SW,222,4.0,6.0,56,0.00,,,0.00,Wunderground v.1.15,2013-03-03 20:55:00,
2013-03-03 13:00:00,59.0,42.8,30.04,WNW,297,4.0,4.0,55,0.00,,,0.00,Wunderground v.1.15,2013-03-03 21:00:00,
2013-03-03 13:10:00,59.8,43.6,30.04,WSW,250,3.0,4.0,55,0.00,,,0.00,Wunderground v.1.15,2013-03-03 21:10:00,
2013-03-03 13:20:00,60.0,45.2,30.04,WSW,255,4.0,4.0,58,0.00,,,0.00,Wunderground v.1.15,2013-03-03 21:20:00,
2013-03-03 13:25:00,59.6,44.8,30.04,WNW,287,4.0,4.0,58,0.00,,,0.00,Wunderground v.1.15,2013-03-03 21:25:00,
2013-03-03 13:30:00,59.8,43.6,30.04,SW,235,3.0,5.0,55,0.00,,,0.00,Wunderground v.1.15,2013-03-03 21:30:00,
2013-03-03 13:35:00,59.8,43.6,30.04,WNW,288,4.0,5.0,55,0.00,,,0.00,Wunderground v.1.15,2013-03-03 21:35:00,
2013-03-03 13:40:00,59.3,43.1,30.04,WSW,242,5.0,5.0,55,0.00,,,0.00,Wunderground v.1.15,2013-03-03 21:40:00,
2013-03-03 13:45:00,59.1,42.5,30.04,WSW,256,5.0,7.0,54,0.00,,,0.00,Wunderground v.1.15,2013-03-03 21:45:00,
2013-03-03 14:00:00,58.7,44.0,30.04,WNW,284,4.0,4.0,58,0.00,,,0.00,Wunderground v.1.15,2013-03-03 22:00:00,
2013-03-03 14:10:00,59.0,43.8,30.04,WNW,287,2.0,2.0,57,0.00,,,0.00,Wunderground v.1.15,2013-03-03 22:10:00,
2013-03-03 14:15:00,59.2,43.0,30.04,West,260,2.0,2.0,55,0.00,,,0.00,Wunderground v.1.15,2013-03-03 22:15:00,
2013-03-03 14:25:00,59.2,47.0,30.04,WNW,302,2.0,3.0,64,0.00,,,0.00,Wunderground v.1.15,2013-03-03 22:25:00,
2013-03-03 14:35:00,56.1,47.2,30.05,WNW,294,2.0,2.0,72,0.00,,,0.00,Wunderground v.1.15,2013-03-03 22:35:00,
2013-03-03 14:40:00,55.1,47.7,30.05,WSW,245,2.0,2.0,76,0.00,,,0.00,Wunderground v.1.15,2013-03-03 22:40:00,
2013-03-03 14:45:00,54.6,47.5,30.05,West,270,2.0,4.0,77,0.00,,,0.00,Wunderground v.1.15,2013-03-03 22:45:00,
2013-03-03 14:50:00,53.7,47.0,30.05,WNW,294,2.0,2.0,78,0.00,,,0.00,Wunderground v.1.15,2013-03-03 22:50:00,
2013-03-03 14:55:00,52.9,46.9,30.05,NW,318,2.0,2.0,80,0.00,,,0.00,Wunderground v.1.15,2013-03-03 22:55:00,
2013-03-03 15:05:00,53.5,47.8,30.04,West,264,1.0,2.0,81,0.00,,,0.00,Wunderground v.1.15,2013-03-03 23:05:00,
2013-03-03 15:10:00,54.5,48.1,30.05,WSW,242,1.0,1.0,79,0.00,,,0.00,Wunderground v.1.15,2013-03-03 23:10:00,
2013-03-03 15:20:00,55.9,48.1,30.04,WNW,300,1.0,1.0,75,0.00,,,0.00,Wunderground v.1.15,2013-03-03 23:20:00,
2013-03-03 15:25:00,55.5,47.3,30.05,West,281,1.0,1.0,74,0.00,,,0.00,Wunderground v.1.15,2013-03-03 23:25:00,
2013-03-03 15:30:00,55.3,47.9,30.04,WNW,298,1.0,2.0,76,0.00,,,0.00,Wunderground v.1.15,2013-03-03 23:30:00,
2013-03-03 15:35:00,55.0,47.9,30.05,WNW,282,1.0,2.0,77,0.00,,,0.00,Wunderground v.1.15,2013-03-03 23:35:00,
2013-03-03 15:45:00,55.1,48.7,30.04,NW,308,1.0,1.0,79,0.00,,,0.00,Wunderground v.1.15,2013-03-03 23:45:00,
2013-03-03 15:50:00,55.4,48.3,30.04,WSW,250,1.0,2.0,77,0.00,,,0.00,Wunderground v.1.15,2013-03-03 23:50:00,
2013-03-03 15:55:00,54.2,47.5,30.04,West,270,2.0,2.0,78,0.00,,,0.00,Wunderground v.1.15,2013-03-03 23:55:00,
2013-03-03 16:00:00,53.4,47.0,30.04,West,280,3.0,3.0,79,0.00,,,0.00,Wunderground v.1.15,2013-03-04 00:00:00,
2013-03-03 16:10:00,52.3,47.0,30.04,WNW,284,3.0,3.0,82,0.00,,,0.00,Wunderground v.1.15,2013-03-04 00:10:00,
2013-03-03 16:15:00,51.8,46.8,30.04,WNW,295,3.0,3.0,83,0.00,,,0.00,Wunderground v.1.15,2013-03-04 00:15:00,
2013-03-03 16:20:00,51.6,46.6,30.04,West,276,2.0,2.0,83,0.00,,,0.00,Wunderground v.1.15,2013-03-04 00:20:00,
2013-03-03 16:25:00,50.8,46.5,30.03,WNW,291,2.0,2.0,85,0.00,,,0.00,Wunderground v.1.15,2013-03-04 00:25:00,
2013-03-03 16:35:00,49.9,45.9,30.04,WNW,295,2.0,3.0,86,0.00,,,0.00,Wunderground v.1.15,2013-03-04 00:35:00,
2013-03-03 16:40:00,49.4,45.7,30.04,West,276,2.0,2.0,87,0.00,,,0.00,Wunderground v.1.15,2013-03-04 00:40:00,
2013-03-03 16:45:00,48.9,45.5,30.04,WNW,283,2.0,2.0,88,0.00,,,0.00,Wunderground v.1.15,2013-03-04 00:45:00,
2013-03-03 16:50:00,48.9,45.8,30.04,West,281,2.0,2.0,89,0.00,,,0.00,Wunderground v.1.15,2013-03-04 00:50:00,
2013-03-03 16:55:00,48.8,45.4,30.04,WNW,283,2.0,2.0,88,0.00,,,0.00,Wunderground v.1.15,2013-03-04 00:55:00,
2013-03-03 17:00:00,48.6,45.5,30.04,WNW,290,2.0,3.0,89,0.00,,,0.00,Wunderground v.1.15,2013-03-04 01:00:00,
2013-03-03 17:10:00,47.9,45.1,30.04,WNW,284,2.0,2.0,90,0.00,,,0.00,Wunderground v.1.15,2013-03-04 01:10:00,
2013-03-03 17:15:00,48.0,45.2,30.04,West,278,1.0,2.0,90,0.00,,,0.00,Wunderground v.1.15,2013-03-04 01:15:00,
2013-03-03 17:20:00,48.1,45.6,30.04,WNW,285,1.0,1.0,91,0.00,,,0.00,Wunderground v.1.15,2013-03-04 01:20:00,
2013-03-03 17:25:00,48.4,45.9,30.04,WNW,285,1.0,1.0,91,0.00,,,0.00,Wunderground v.1.15,2013-03-04 01:25:00,
2013-03-03 17:35:00,47.2,44.4,30.03,NW,305,2.0,3.0,90,0.00,,,0.00,Wunderground v.1.15,2013-03-04 01:35:00,
2013-03-03 17:40:00,46.8,44.3,30.04,West,276,2.0,2.0,91,0.00,,,0.00,Wunderground v.1.15,2013-03-04 01:40:00,
2013-03-03 17:45:00,46.6,44.4,30.04,West,281,2.0,2.0,92,0.00,,,0.00,Wunderground v.1.15,2013-03-04 01:45:00,
2013-03-03 17:50:00,46.4,44.2,30.04,WNW,291,1.0,1.0,92,0.00,,,0.00,Wunderground v.1.15,2013-03-04 01:50:00,
2013-03-03 17:55:00,46.4,44.5,30.04,WNW,290,1.0,1.0,93,0.00,,,0.00,Wunderground v.1.15,2013-03-04 01:55:00,
2013-03-03 18:00:00,46.4,44.5,30.04,WNW,291,0.0,1.0,93,0.00,,,0.00,Wunderground v.1.15,2013-03-04 02:00:00,
2013-03-03 18:10:00,46.1,44.2,30.04,WNW,283,1.0,1.0,93,0.00,,,0.00,Wunderground v.1.15,2013-03-04 02:10:00,
2013-03-03 18:15:00,46.0,44.1,30.05,WNW,283,1.0,2.0,93,0.00,,,0.00,Wunderground v.1.15,2013-03-04 02:15:00,
2013-03-03 18:20:00,45.7,43.8,30.05,NW,307,1.0,2.0,93,0.00,,,0.00,Wunderground v.1.15,2013-03-04 02:20:00,
2013-03-03 18:30:00,45.2,43.3,30.05,WNW,293,1.0,2.0,93,0.00,,,0.00,Wunderground v.1.15,2013-03-04 02:30:00,
2013-03-03 18:35:00,45.0,43.4,30.05,WNW,283,2.0,2.0,94,0.00,,,0.00,Wunderground v.1.15,2013-03-04 02:35:00,
2013-03-03 18:40:00,44.8,43.2,30.05,WNW,291,2.0,2.0,94,0.00,,,0.00,Wunderground v.1.15,2013-03-04 02:40:00,
2013-03-03 18:50:00,44.7,43.1,30.05,WNW,284,1.0,1.0,94,0.00,,,0.00,Wunderground v.1.15,2013-03-04 02:50:00,
2013-03-03 19:00:00,44.6,43.0,30.05,WNW,294,2.0,2.0,94,0.00,,,0.00,Wunderground v.1.15,2013-03-04 03:00:00,
2013-03-03 19:10:00,44.4,42.8,30.05,West,280,3.0,3.0,94,0.00,,,0.00,Wunderground v.1.15,2013-03-04 03:10:00,
2013-03-03 19:20:00,44.3,43.0,30.06,West,278,2.0,2.0,95,0.00,,,0.00,Wunderground v.1.15,2013-03-04 03:20:00,
2013-03-03 19:25:00,44.2,42.9,30.05,WNW,284,2.0,2.0,95,0.00,,,0.00,Wunderground v.1.15,2013-03-04 03:25:00,
2013-03-03 19:30:00,44.2,42.9,30.06,WSW,255,1.0,1.0,95,0.00,,,0.00,Wunderground v.1.15,2013-03-04 03:30:00,
2013-03-03 19:35:00,44.2,42.9,30.06,WNW,296,1.0,2.0,95,0.00,,,0.00,Wunderground v.1.15,2013-03-04 03:35:00,
2013-03-03 19:40:00,44.0,42.7,30.06,WNW,284,2.0,2.0,95,0.00,,,0.00,Wunderground v.1.15,2013-03-04 03:40:00,
2013-03-03 19:50:00,43.9,42.6,30.06,West,274,2.0,2.0,95,0.00,,,0.00,Wunderground v.1.15,2013-03-04 03:50:00,
2013-03-03 19:55:00,43.8,42.5,30.07,WNW,291,3.0,3.0,95,0.00,,,0.00,Wunderground v.1.15,2013-03-04 03:55:00,
2013-03-03 20:00:00,43.7,42.4,30.07,West,259,3.0,3.0,95,0.00,,,0.00,Wunderground v.1.15,2013-03-04 04:00:00,
2013-03-03 20:10:00,43.7,42.4,30.08,WNW,293,2.0,2.0,95,0.00,,,0.00,Wunderground v.1.15,2013-03-04 04:10:00,
2013-03-03 20:15:00,43.7,42.4,30.08,WNW,295,2.0,3.0,95,0.00,,,0.00,Wunderground v.1.15,2013-03-04 04:15:00,
2013-03-03 20:20:00,43.7,42.4,30.08,West,269,3.0,4.0,95,0.00,,,0.00,Wunderground v.1.15,2013-03-04 04:20:00,
2013-03-03 20:30:00,43.7,42.4,30.08,WNW,293,2.0,2.0,95,0.00,,,0.00,Wunderground v.1.15,2013-03-04 04:30:00,
2013-03-03 20:40:00,43.9,42.8,30.07,ENE,73,0.0,0.0,96,0.00,,,0.00,Wunderground v.1.15,2013-03-04 04:40:00,
2013-03-03 20:45:00,44.0,42.9,30.07,East,88,0.0,2.0,96,0.00,,,0.00,Wunderground v.1.15,2013-03-04 04:45:00,
2013-03-03 20:55:00,43.8,42.7,30.07,WSW,242,0.0,0.0,96,0.00,,,0.00,Wunderground v.1.15,2013-03-04 04:55:00,
2013-03-03 21:00:00,43.8,42.7,30.07,WSW,242,0.0,1.0,96,0.00,,,0.00,Wunderground v.1.15,2013-03-04 05:00:00,
2013-03-03 21:05:00,43.6,42.3,30.07,WNW,288,0.0,1.0,95,0.00,,,0.00,Wunderground v.1.15,2013-03-04 05:05:00,
2013-03-03 21:10:00,43.6,42.5,30.07,WNW,293,1.0,1.0,96,0.00,,,0.00,Wunderground v.1.15,2013-03-04 05:10:00,
2013-03-03 21:15:00,43.4,42.1,30.07,West,278,1.0,1.0,95,0.00,,,0.00,Wunderground v.1.15,2013-03-04 05:15:00,
2013-03-03 21:20:00,43.4,42.3,30.07,WNW,290,2.0,2.0,96,0.00,,,0.00,Wunderground v.1.15,2013-03-04 05:20:00,
2013-03-03 21:30:00,43.3,42.2,30.08,West,267,2.0,3.0,96,0.00,,,0.00,Wunderground v.1.15,2013-03-04 05:30:00,
2013-03-03 21:35:00,43.3,42.2,30.08,WNW,294,2.0,3.0,96,0.00,,,0.00,Wunderground v.1.15,2013-03-04 05:35:00,
2013-03-03 21:40:00,43.3,42.2,30.07,West,281,1.0,1.0,96,0.00,,,0.00,Wunderground v.1.15,2013-03-04 05:40:00,
2013-03-03 21:45:00,43.2,42.1,30.07,West,281,1.0,1.0,96,0.00,,,0.00,Wunderground v.1.15,2013-03-04 05:45:00,
2013-03-03 21:50:00,43.4,42.3,30.07,ENE,76,0.0,0.0,96,0.00,,,0.00,Wunderground v.1.15,2013-03-04 05:50:00,
2013-03-03 21:55:00,43.5,42.4,30.07,ESE,108,1.0,1.0,96,0.00,,,0.00,Wunderground v.1.15,2013-03-04 05:55:00,
2013-03-03 22:00:00,43.3,42.2,30.07,WNW,289,1.0,1.0,96,0.00,,,0.00,Wunderground v.1.15,2013-03-04 06:00:00,
2013-03-03 22:10:00,43.3,42.2,30.06,West,276,0.0,1.0,96,0.00,,,0.00,Wunderground v.1.15,2013-03-04 06:10:00,
2013-03-03 22:15:00,43.1,42.0,30.06,WNW,293,1.0,1.0,96,0.00,,,0.00,Wunderground v.1.15,2013-03-04 06:15:00,
2013-03-03 22:20:00,43.0,41.9,30.06,WNW,293,1.0,1.0,96,0.00,,,0.00,Wunderground v.1.15,2013-03-04 06:20:00,
2013-03-03 22:25:00,43.1,42.0,30.06,WNW,293,0.0,1.0,96,0.00,,,0.00,Wunderground v.1.15,2013-03-04 06:25:00,
2013-03-03 22:30:00,43.2,42.1,30.06,WNW,293,0.0,0.0,96,0.00,,,0.00,Wunderground v.1.15,2013-03-04 06:30:00,
2013-03-03 22:40:00,43.0,41.9,30.06,WNW,293,0.0,1.0,96,0.00,,,0.00,Wunderground v.1.15,2013-03-04 06:40:00,
2013-03-03 22:45:00,42.9,41.8,30.06,West,280,1.0,1.0,96,0.00,,,0.00,Wunderground v.1.15,2013-03-04 06:45:00,
2013-03-03 22:50:00,42.9,41.8,30.07,WNW,295,1.0,2.0,96,0.00,,,0.00,Wunderground v.1.15,2013-03-04 06:50:00,
2013-03-03 22:55:00,42.7,41.6,30.06,WNW,294,1.0,2.0,96,0.00,,,0.00,Wunderground v.1.15,2013-03-04 06:55:00,
2013-03-03 23:00:00,42.7,41.6,30.06,West,276,1.0,1.0,96,0.00,,,0.00,Wunderground v.1.15,2013-03-04 07:00:00,
2013-03-03 23:15:00,42.7,41.6,30.06,WNW,302,1.0,1.0,96,0.00,,,0.00,Wunderground v.1.15,2013-03-04 07:15:00,
2013-03-03 23:20:00,42.9,41.8,30.06,WNW,302,0.0,1.0,96,0.00,,,0.00,Wunderground v.1.15,2013-03-04 07:20:00,
2013-03-03 23:25:00,43.0,41.9,30.06,WNW,302,0.0,0.0,96,0.00,,,0.00,Wunderground v.1.15,2013-03-04 07:25:00,
2013-03-03 23:30:00,42.9,41.8,30.06,WNW,302,0.0,0.0,96,0.00,,,0.00,Wunderground v.1.15,2013-03-04 07:30:00,
2013-03-03 23:35:00,42.8,41.7,30.06,WNW,302,0.0,0.0,96,0.00,,,0.00,Wunderground v.1.15,2013-03-04 07:35:00,
2013-03-03 23:40:00,42.8,41.7,30.06,NNE,32,0.0,0.0,96,0.00,,,0.00,Wunderground v.1.15,2013-03-04 07:40:00,
2013-03-03 23:50:00,42.5,41.4,30.06,WNW,283,0.0,0.0,96,0.00,,,0.00,Wunderground v.1.15,2013-03-04 07:50:00,
2013-03-03 23:55:00,42.4,41.3,30.06,WNW,284,0.0,0.0,96,0.00,,,0.00,Wunderground v.1.15,2013-03-04 07:55:00,